When you browse on this site, cookies collect data to enhance your experience and personalize the content and advertising you see.
Visit our Privacy Policy to learn more. By continuing to use the site, you agree to this use of cookies and data.
  • Em Portugal
  • Lista de países
  • Para 7 dias
  • Temperatura da água
  • Mapas de satélite
  • Mapa do tempo
  • Widgets de tempo
  • user-avatar
    Iniciar Sessão

    Previsão horária em Grzebsk

    Hoje, 25 Março, Segunda-feira

    Tempo Temperatura Precipitação Vento Pressão Humidade
    00:00 +5°C° 0 mm 1 m/s 749 mmHg 70%
    01:00 +4°C° 0 mm 1 m/s 748 mmHg 73%
    02:00 +3°C° 0 mm 1 m/s 748 mmHg 75%
    03:00 +2°C° 0 mm 2 m/s 747 mmHg 77%
    04:00 +1°C° 0 mm 2 m/s 747 mmHg 79%
    05:00 +1°C° 0 mm 2 m/s 746 mmHg 76%
    06:00 +2°C° 0 mm 2 m/s 746 mmHg 72%
    07:00 +2°C° 0 mm 2 m/s 745 mmHg 69%
    08:00 +3°C° 0 mm 2 m/s 745 mmHg 64%
    09:00 +5°C° 0 mm 2 m/s 745 mmHg 59%
    10:00 +6°C° 0 mm 2 m/s 745 mmHg 54%
    11:00 +6°C° 0.3 mm 2 m/s 745 mmHg 58%
    12:00 +6°C° 0.3 mm 2 m/s 744 mmHg 61%
    13:00 +6°C° 0.3 mm 2 m/s 744 mmHg 65%
    14:00 +6°C° 0.4 mm 2 m/s 744 mmHg 67%
    15:00 +6°C° 0.4 mm 2 m/s 744 mmHg 68%
    16:00 +5°C° 0.4 mm 2 m/s 744 mmHg 70%
    17:00 +4°C° 0.1 mm 3 m/s 745 mmHg 74%
    18:00 +3°C° 0.1 mm 3 m/s 745 mmHg 78%
    19:00 +2°C° 0.1 mm 3 m/s 746 mmHg 81%
    20:00 +1°C° 0 mm 3 m/s 746 mmHg 85%
    21:00 0°C° 0 mm 4 m/s 747 mmHg 89%
    22:00 -1°C° 0 mm 4 m/s 747 mmHg 93%
    23:00 0°C° 0 mm 4 m/s 748 mmHg 90%

    Amanhã, 26 Março, Terça-feira

    Tempo Temperatura Precipitação Vento Pressão Humidade
    00:00 0°C° 0 mm 4 m/s 749 mmHg 87%
    01:00 0°C° 0 mm 4 m/s 749 mmHg 83%
    02:00 -1°C° 0 mm 4 m/s 749 mmHg 86%
    03:00 -1°C° 0 mm 3 m/s 750 mmHg 89%
    04:00 -2°C° 0 mm 3 m/s 750 mmHg 92%
    05:00 -2°C° 0 mm 3 m/s 750 mmHg 86%
    06:00 -2°C° 0 mm 4 m/s 750 mmHg 80%
    07:00 -2°C° 0 mm 4 m/s 750 mmHg 75%
    08:00 0°C° 0 mm 5 m/s 750 mmHg 73%
    09:00 +2°C° 0 mm 6 m/s 750 mmHg 71%
    10:00 +4°C° 0 mm 7 m/s 749 mmHg 70%
    11:00 +4°C° 0.3 mm 8 m/s 749 mmHg 67%
    12:00 +4°C° 0.3 mm 8 m/s 749 mmHg 65%
    13:00 +3°C° 0.3 mm 9 m/s 748 mmHg 63%
    14:00 +4°C° 0.3 mm 8 m/s 748 mmHg 66%
    15:00 +2°C° 0.3 mm 8 m/s 748 mmHg 69%
    16:00 +1°C° 0.3 mm 8 m/s 748 mmHg 72%
    17:00 0°C° 0.1 mm 7 m/s 749 mmHg 72%
    18:00 -2°C° 0.1 mm 6 m/s 750 mmHg 72%
    19:00 -2°C° 0.1 mm 5 m/s 751 mmHg 72%
    20:00 -3°C° 0 mm 4 m/s 751 mmHg 73%
    21:00 -3°C° 0 mm 4 m/s 752 mmHg 73%
    22:00 -4°C° 0 mm 3 m/s 753 mmHg 74%
    23:00 -4°C° 0 mm 3 m/s 753 mmHg 75%

    Depois de amanhã, 27 Março, Quarta-feira

    Tempo Temperatura Precipitação Vento Pressão Humidade
    00:00 -4°C° 0 mm 3 m/s 754 mmHg 75%
    01:00 -4°C° 0 mm 3 m/s 754 mmHg 76%
    02:00 -4°C° 0 mm 3 m/s 754 mmHg 76%
    03:00 -4°C° 0 mm 3 m/s 755 mmHg 77%
    04:00 -4°C° 0 mm 3 m/s 755 mmHg 77%
    05:00 -2°C° 0 mm 2 m/s 755 mmHg 73%
    06:00 -2°C° 0 mm 2 m/s 756 mmHg 69%
    07:00 -1°C° 0 mm 2 m/s 756 mmHg 66%
    08:00 +2°C° 0 mm 2 m/s 756 mmHg 58%
    09:00 +3°C° 0 mm 2 m/s 756 mmHg 51%
    10:00 +3°C° 0 mm 3 m/s 757 mmHg 43%
    11:00 +5°C° 0 mm 3 m/s 757 mmHg 44%
    12:00 +7°C° 0 mm 3 m/s 756 mmHg 46%
    13:00 +7°C° 0 mm 4 m/s 756 mmHg 47%
    14:00 +6°C° 0 mm 4 m/s 756 mmHg 53%
    15:00 +6°C° 0 mm 4 m/s 756 mmHg 59%
    16:00 +6°C° 0 mm 4 m/s 756 mmHg 66%
    17:00 +5°C° 0 mm 3 m/s 757 mmHg 73%
    18:00 +5°C° 0 mm 2 m/s 757 mmHg 80%
    19:00 +4°C° 0 mm 2 m/s 757 mmHg 88%
    20:00 +4°C° 0 mm 2 m/s 757 mmHg 89%
    21:00 +4°C° 0 mm 2 m/s 757 mmHg 91%
    22:00 +4°C° 0 mm 2 m/s 758 mmHg 92%
    23:00 +4°C° 0.1 mm 2 m/s 758 mmHg 93%

    28 Março, Quinta-feira

    Tempo Temperatura Precipitação Vento Pressão Humidade
    00:00 +4°C° 0.1 mm 2 m/s 758 mmHg 93%
    01:00 +4°C° 0.1 mm 2 m/s 758 mmHg 94%
    02:00 +5°C° 0.2 mm 1 m/s 758 mmHg 95%
    03:00 +5°C° 0.2 mm 1 m/s 759 mmHg 96%
    04:00 +5°C° 0.2 mm 1 m/s 759 mmHg 97%
    05:00 +5°C° 0 mm 1 m/s 759 mmHg 96%
    06:00 +6°C° 0 mm 1 m/s 759 mmHg 95%
    07:00 +6°C° 0 mm 1 m/s 759 mmHg 94%
    08:00 +7°C° 0 mm 1 m/s 760 mmHg 87%
    09:00 +8°C° 0 mm 1 m/s 760 mmHg 81%
    10:00 +10°C° 0 mm 1 m/s 760 mmHg 74%
    11:00 +10°C° 0 mm 1 m/s 761 mmHg 70%
    12:00 +11°C° 0 mm 1 m/s 761 mmHg 65%
    13:00 +12°C° 0 mm 1 m/s 761 mmHg 60%
    14:00 +12°C° 0 mm 1 m/s 761 mmHg 60%
    15:00 +12°C° 0 mm 1 m/s 761 mmHg 60%
    16:00 +12°C° 0 mm 1 m/s 761 mmHg 60%
    17:00 +10°C° 0 mm 1 m/s 761 mmHg 66%
    18:00 +9°C° 0 mm 1 m/s 761 mmHg 72%
    19:00 +8°C° 0 mm 1 m/s 761 mmHg 78%
    20:00 +7°C° 0 mm 1 m/s 761 mmHg 81%
    21:00 +7°C° 0 mm 1 m/s 762 mmHg 83%
    22:00 +6°C° 0 mm 1 m/s 762 mmHg 85%
    23:00 +6°C° 0 mm 1 m/s 762 mmHg 87%

    29 Março, Sexta-feira

    Tempo Temperatura Precipitação Vento Pressão Humidade
    00:00 +6°C° 0 mm 1 m/s 762 mmHg 88%
    01:00 +5°C° 0 mm 1 m/s 762 mmHg 89%
    02:00 +4°C° 0 mm 2 m/s 762 mmHg 89%
    03:00 +4°C° 0 mm 2 m/s 762 mmHg 89%
    04:00 +4°C° 0 mm 2 m/s 762 mmHg 90%
    05:00 +4°C° 0 mm 2 m/s 762 mmHg 87%
    06:00 +5°C° 0 mm 2 m/s 762 mmHg 85%
    07:00 +6°C° 0 mm 2 m/s 762 mmHg 82%
    08:00 +8°C° 0 mm 2 m/s 762 mmHg 75%
    09:00 +9°C° 0 mm 2 m/s 762 mmHg 67%
    10:00 +11°C° 0 mm 3 m/s 762 mmHg 60%
    11:00 +12°C° 0 mm 3 m/s 761 mmHg 57%
    12:00 +13°C° 0 mm 3 m/s 761 mmHg 53%
    13:00 +14°C° 0 mm 4 m/s 760 mmHg 49%
    14:00 +13°C° 0 mm 4 m/s 760 mmHg 50%
    15:00 +13°C° 0 mm 4 m/s 760 mmHg 51%
    16:00 +13°C° 0 mm 4 m/s 759 mmHg 52%
    17:00 +12°C° 0 mm 3 m/s 759 mmHg 58%
    18:00 +10°C° 0 mm 3 m/s 759 mmHg 65%
    19:00 +8°C° 0 mm 2 m/s 759 mmHg 71%
    20:00 +8°C° 0 mm 2 m/s 759 mmHg 75%
    21:00 +7°C° 0 mm 2 m/s 759 mmHg 78%
    22:00 +7°C° 0 mm 2 m/s 758 mmHg 82%
    23:00 +6°C° 0 mm 2 m/s 758 mmHg 83%

    30 Março, Sábado

    Tempo Temperatura Precipitação Vento Pressão Humidade
    00:00 +6°C° 0 mm 2 m/s 758 mmHg 84%
    01:00 +6°C° 0 mm 1 m/s 758 mmHg 85%
    02:00 +5°C° 0 mm 2 m/s 758 mmHg 86%
    03:00 +4°C° 0 mm 2 m/s 757 mmHg 88%
    04:00 +4°C° 0 mm 2 m/s 757 mmHg 90%
    05:00 +4°C° 0 mm 3 m/s 757 mmHg 86%
    06:00 +5°C° 0 mm 3 m/s 757 mmHg 83%
    07:00 +5°C° 0 mm 3 m/s 756 mmHg 80%
    08:00 +7°C° 0 mm 4 m/s 756 mmHg 72%
    09:00 +9°C° 0 mm 5 m/s 756 mmHg 65%
    10:00 +12°C° 0 mm 5 m/s 756 mmHg 58%
    11:00 +12°C° 0 mm 5 m/s 755 mmHg 56%
    12:00 +13°C° 0 mm 5 m/s 755 mmHg 55%
    13:00 +13°C° 0 mm 5 m/s 754 mmHg 54%
    14:00 +13°C° 0 mm 5 m/s 754 mmHg 55%
    15:00 +13°C° 0 mm 5 m/s 753 mmHg 56%
    16:00 +13°C° 0 mm 5 m/s 752 mmHg 57%
    17:00 +12°C° 0 mm 4 m/s 752 mmHg 59%
    18:00 +11°C° 0 mm 4 m/s 752 mmHg 61%
    19:00 +10°C° 0 mm 3 m/s 752 mmHg 63%
    20:00 +10°C° 0 mm 3 m/s 751 mmHg 66%
    21:00 +9°C° 0 mm 3 m/s 751 mmHg 68%
    22:00 +8°C° 0 mm 3 m/s 751 mmHg 70%
    23:00 +8°C° 0 mm 3 m/s 750 mmHg 73%
    Mostrar mais